| time (UTC) | temp C | wind direction | speed KPH | gust KPH | rain 1hr cm | rain 24hr cm | rain mn cm | humidity % | barometer mb |
| 20260504013720 | 11 | 169 | 0.0 | 0.0 | 0.00 | 0.03 | 0.03 | 59 | 1015.2 |
| 20260504013219 | 11 | 170 | 0.0 | 0.0 | 0.00 | 0.03 | 0.03 | 61 | 1015.2 |
| 20260504012714 | 11 | 171 | 0.0 | 0.0 | 0.00 | 0.03 | 0.03 | 57 | 1015.1 |
| 20260504012212 | 11 | 168 | 0.0 | 0.0 | 0.00 | 0.03 | 0.03 | 58 | 1015.2 |
| 20260504011709 | 11 | 165 | 0.0 | 0.0 | 0.00 | 0.03 | 0.03 | 57 | 1015.1 |
| 20260504011205 | 11 | 170 | 0.0 | 0.0 | 0.00 | 0.03 | 0.03 | 58 | 1015.1 |
| 20260504010701 | 11 | 171 | 0.0 | 0.0 | 0.00 | 0.03 | 0.03 | 58 | 1015.2 |
| 20260504010157 | 11 | 172 | 0.0 | 0.0 | 0.00 | 0.03 | 0.03 | 56 | 1015.3 |
| 20260504005654 | 11 | 170 | 0.0 | 0.0 | 0.00 | 0.03 | 0.03 | 56 | 1015.2 |
| 20260504005151 | 11 | 169 | 0.0 | 0.0 | 0.00 | 0.03 | 0.03 | 58 | 1015.2 |
| 20260504004649 | 12 | 169 | 0.0 | 0.0 | 0.00 | 0.03 | 0.03 | 56 | 1015.1 |
| 20260504004146 | 12 | 172 | 0.0 | 0.0 | 0.00 | 0.03 | 0.03 | 55 | 1015.1 |
| 20260504003642 | 12 | 173 | 0.0 | 0.0 | 0.00 | 0.03 | 0.03 | 55 | 1015.0 |
| 20260504003139 | 12 | 166 | 0.0 | 0.0 | 0.00 | 0.03 | 0.03 | 57 | 1015.2 |
| 20260504002636 | 12 | 165 | 0.0 | 0.0 | 0.00 | 0.03 | 0.03 | 55 | 1015.3 |
| 20260504002133 | 12 | 165 | 0.0 | 0.0 | 0.00 | 0.03 | 0.03 | 55 | 1015.4 |
| 20260504001631 | 12 | 164 | 0.0 | 0.0 | 0.00 | 0.03 | 0.03 | 55 | 1015.3 |
| 20260504001127 | 12 | 163 | 0.0 | 0.0 | 0.00 | 0.03 | 0.03 | 55 | 1015.3 |
| 20260504000624 | 12 | 164 | 0.0 | 0.0 | 0.00 | 0.03 | 0.03 | 52 | 1015.3 |
| 20260504000121 | 13 | 158 | 0.0 | 0.0 | 0.00 | 0.03 | 0.03 | 54 | 1015.6 |
| 20260503235620 | 13 | 164 | 0.0 | 0.0 | 0.00 | 0.03 | 0.03 | 54 | 1015.6 |
| 20260503235116 | 13 | 163 | 0.0 | 0.0 | 0.00 | 0.03 | 0.03 | 53 | 1015.9 |
| 20260503234614 | 13 | 182 | 3.2 | 3.2 | 0.00 | 0.03 | 0.03 | 50 | 1015.7 |
| 20260503234112 | 13 | 168 | 0.0 | 0.0 | 0.00 | 0.03 | 0.03 | 50 | 1015.9 |
| 20260503233609 | 13 | 165 | 0.0 | 0.0 | 0.00 | 0.03 | 0.03 | 50 | 1015.9 |
| 20260503233059 | 13 | 167 | 0.0 | 0.0 | 0.00 | 0.03 | 0.03 | 50 | 1015.9 |
| 20260503232556 | 14 | 166 | 0.0 | 0.0 | 0.00 | 0.03 | 0.03 | 50 | 1015.8 |
| 20260503232053 | 14 | 207 | 4.8 | 4.8 | 0.00 | 0.03 | 0.03 | 47 | 1016.0 |
| 20260503231551 | 15 | 178 | 0.0 | 0.0 | 0.00 | 0.03 | 0.03 | 48 | 1015.9 |
| 20260503231048 | 15 | 163 | 3.2 | 4.8 | 0.00 | 0.03 | 0.03 | 43 | 1015.8 |
| 20260503230544 | 16 | 183 | 0.0 | 3.2 | 0.00 | 0.03 | 0.03 | 42 | 1015.9 |
| 20260503230042 | 15 | 169 | 0.0 | 0.0 | 0.00 | 0.03 | 0.03 | 42 | 1015.8 |
| 20260503225538 | 15 | 198 | 1.6 | 3.2 | 0.00 | 0.03 | 0.03 | 41 | 1016.1 |
| 20260503225033 | 16 | 163 | 0.0 | 0.0 | 0.00 | 0.03 | 0.03 | 40 | 1016.2 |
| 20260503224531 | 15 | 182 | 0.0 | 0.0 | 0.00 | 0.03 | 0.03 | 44 | 1016.4 |
| 20260503224029 | 15 | 208 | 1.6 | 3.2 | 0.00 | 0.03 | 0.03 | 43 | 1016.2 |
| 20260503223527 | 16 | 192 | 0.0 | 0.0 | 0.00 | 0.03 | 0.03 | 40 | 1016.5 |
| 20260503223022 | 16 | 192 | 1.6 | 3.2 | 0.00 | 0.03 | 0.03 | 37 | 1016.4 |
| 20260503222520 | 16 | 188 | 0.0 | 0.0 | 0.00 | 0.03 | 0.03 | 40 | 1016.4 |
| 20260503222018 | 17 | 197 | 3.2 | 3.2 | 0.00 | 0.03 | 0.03 | 42 | 1016.6 |
| 20260503221516 | 16 | 186 | 0.0 | 3.2 | 0.00 | 0.03 | 0.03 | 41 | 1016.6 |
| 20260503221013 | 16 | 167 | 0.0 | 0.0 | 0.00 | 0.03 | 0.03 | 43 | 1016.6 |
| 20260503220509 | 16 | 206 | 1.6 | 4.8 | 0.00 | 0.03 | 0.03 | 43 | 1016.7 |
| 20260503220006 | 17 | 165 | 0.0 | 3.2 | 0.00 | 0.03 | 0.03 | 44 | 1016.7 |
| 20260503215503 | 16 | 185 | 3.2 | 3.2 | 0.00 | 0.03 | 0.03 | 46 | 1016.7 |
| 20260503215000 | 16 | 31 | 6.4 | 8.0 | 0.00 | 0.03 | 0.03 | 43 | 1016.7 |
| 20260503214459 | 16 | 220 | 4.8 | 8.0 | 0.00 | 0.03 | 0.03 | 43 | 1016.7 |
| 20260503213955 | 16 | 156 | 0.0 | 0.0 | 0.00 | 0.03 | 0.03 | 46 | 1016.9 |
| 20260503213454 | 16 | 192 | 1.6 | 3.2 | 0.00 | 0.03 | 0.03 | 43 | 1016.9 |
| 20260503212949 | 16 | 97 | 1.6 | 3.2 | 0.00 | 0.03 | 0.03 | 42 | 1016.8 |
| 20260503212447 | 16 | 185 | 0.0 | 0.0 | 0.00 | 0.03 | 0.03 | 46 | 1017.0 |
| 20260503211944 | 16 | 169 | 1.6 | 3.2 | 0.00 | 0.03 | 0.03 | 46 | 1017.3 |
| 20260503211441 | 16 | 186 | 0.0 | 0.0 | 0.00 | 0.03 | 0.03 | 48 | 1017.2 |
| 20260503210937 | 16 | 126 | 1.6 | 3.2 | 0.00 | 0.03 | 0.03 | 45 | 1017.1 |
| 20260503210433 | 16 | 211 | 4.8 | 8.0 | 0.00 | 0.03 | 0.03 | 48 | 1017.5 |
| 20260503205928 | 16 | 195 | 0.0 | 0.0 | 0.00 | 0.03 | 0.03 | 48 | 1017.4 |
| 20260503205426 | 15 | 170 | 3.2 | 4.8 | 0.00 | 0.03 | 0.03 | 46 | 1017.3 |
| 20260503204922 | 15 | 198 | 0.0 | 0.0 | 0.00 | 0.03 | 0.03 | 44 | 1017.5 |
| 20260503204419 | 16 | 183 | 3.2 | 3.2 | 0.00 | 0.03 | 0.03 | 46 | 1017.4 |
| 20260503203916 | 16 | 143 | 4.8 | 8.0 | 0.00 | 0.03 | 0.03 | 45 | 1017.4 |
| 20260503203414 | 16 | 130 | 1.6 | 3.2 | 0.00 | 0.03 | 0.03 | 46 | 1017.6 |
| 20260503202910 | 16 | 186 | 3.2 | 4.8 | 0.00 | 0.03 | 0.03 | 47 | 1017.7 |
| 20260503202409 | 15 | 189 | 0.0 | 0.0 | 0.00 | 0.03 | 0.03 | 45 | 1017.9 |
| 20260503201907 | 16 | 180 | 0.0 | 0.0 | 0.00 | 0.03 | 0.03 | 44 | 1018.0 |
| 20260503201403 | 16 | 201 | 0.0 | 0.0 | 0.00 | 0.03 | 0.03 | 46 | 1018.0 |
| 20260503200901 | 16 | 39 | 3.2 | 4.8 | 0.00 | 0.03 | 0.03 | 46 | 1018.0 |
| 20260503200356 | 15 | 178 | 0.0 | 0.0 | 0.00 | 0.03 | 0.03 | 48 | 1018.2 |
| 20260503195854 | 15 | 189 | 0.0 | 0.0 | 0.00 | 0.03 | 0.03 | 50 | 1018.4 |
| 20260503195350 | 15 | 215 | 4.8 | 8.0 | 0.00 | 0.03 | 0.03 | 52 | 1018.3 |
| 20260503194848 | 15 | 193 | 0.0 | 3.2 | 0.00 | 0.03 | 0.03 | 47 | 1018.4 |
| 20260503194344 | 15 | 78 | 3.2 | 4.8 | 0.00 | 0.03 | 0.03 | 50 | 1018.4 |
| 20260503193840 | 15 | 263 | 11.3 | 14.5 | 0.00 | 0.03 | 0.03 | 47 | 1018.6 |
| 20260503193336 | 15 | 186 | 6.4 | 8.0 | 0.00 | 0.03 | 0.03 | 45 | 1018.5 |
| 20260503192832 | 15 | 167 | 0.0 | 0.0 | 0.00 | 0.03 | 0.03 | 50 | 1018.8 |
| 20260503192328 | 15 | 177 | 0.0 | 0.0 | 0.00 | 0.03 | 0.03 | 52 | 1018.8 |
| 20260503191824 | 15 | 171 | 0.0 | 0.0 | 0.00 | 0.03 | 0.03 | 54 | 1018.9 |
| 20260503191321 | 14 | 86 | 9.7 | 11.3 | 0.00 | 0.03 | 0.03 | 54 | 1018.6 |
| 20260503190817 | 14 | 190 | 0.0 | 0.0 | 0.00 | 0.03 | 0.03 | 54 | 1018.9 |
| 20260503190315 | 14 | 239 | 3.2 | 4.8 | 0.00 | 0.03 | 0.03 | 56 | 1019.1 |
| 20260503185812 | 13 | 193 | 1.6 | 3.2 | 0.00 | 0.03 | 0.03 | 54 | 1019.2 |
| 20260503185307 | 14 | 194 | 0.0 | 0.0 | 0.00 | 0.03 | 0.03 | 54 | 1019.1 |
| 20260503184802 | 14 | 192 | 3.2 | 4.8 | 0.00 | 0.03 | 0.03 | 57 | 1019.3 |
| 20260503184259 | 14 | 165 | 1.6 | 3.2 | 0.00 | 0.03 | 0.03 | 55 | 1019.3 |
| 20260503183754 | 14 | 274 | 8.0 | 8.0 | 0.00 | 0.03 | 0.03 | 57 | 1019.5 |
| 20260503183252 | 13 | 172 | 0.0 | 0.0 | 0.00 | 0.03 | 0.03 | 57 | 1019.4 |
| 20260503182749 | 13 | 187 | 1.6 | 3.2 | 0.00 | 0.03 | 0.03 | 57 | 1019.5 |
| 20260503182248 | 13 | 221 | 3.2 | 3.2 | 0.00 | 0.03 | 0.03 | 57 | 1019.5 |
| 20260503181745 | 13 | 169 | 0.0 | 3.2 | 0.00 | 0.03 | 0.03 | 55 | 1019.7 |
| 20260503181242 | 12 | 160 | 0.0 | 3.2 | 0.00 | 0.03 | 0.03 | 54 | 1019.7 |
| 20260503180738 | 12 | 344 | 3.2 | 8.0 | 0.00 | 0.03 | 0.03 | 56 | 1020.0 |
| 20260503180237 | 13 | 180 | 3.2 | 4.8 | 0.00 | 0.03 | 0.03 | 56 | 1019.8 |
| 20260503175733 | 13 | 178 | 0.0 | 0.0 | 0.00 | 0.03 | 0.03 | 57 | 1019.7 |
| 20260503175231 | 13 | 161 | 0.0 | 0.0 | 0.00 | 0.03 | 0.03 | 56 | 1019.7 |
| 20260503174726 | 12 | 176 | 0.0 | 0.0 | 0.00 | 0.03 | 0.03 | 56 | 1019.8 |
| 20260503174224 | 12 | 161 | 0.0 | 0.0 | 0.00 | 0.03 | 0.03 | 56 | 1020.0 |
| 20260503173719 | 12 | 175 | 0.0 | 0.0 | 0.00 | 0.03 | 0.03 | 57 | 1020.0 |
| 20260503173215 | 12 | 221 | 0.0 | 0.0 | 0.00 | 0.03 | 0.03 | 57 | 1020.0 |
| 20260503172712 | 12 | 175 | 0.0 | 0.0 | 0.00 | 0.03 | 0.03 | 59 | 1020.0 |
| 20260503172209 | 12 | 114 | 4.8 | 4.8 | 0.00 | 0.03 | 0.03 | 58 | 1020.0 |
| 20260503171705 | 12 | 206 | 1.6 | 3.2 | 0.00 | 0.03 | 0.03 | 62 | 1020.1 |
| 20260503171203 | 12 | 180 | 0.0 | 0.0 | 0.00 | 0.03 | 0.03 | 61 | 1020.3 |
| 20260503170700 | 12 | 96 | 3.2 | 4.8 | 0.00 | 0.03 | 0.03 | 59 | 1020.4 |
| 20260503170157 | 11 | 168 | 0.0 | 0.0 | 0.00 | 0.03 | 0.03 | 56 | 1020.5 |
| 20260503160118 | 10 | 163 | 0.0 | 3.2 | 0.00 | 0.03 | 0.03 | 66 | 1020.9 |
| 20260503150548 | 8 | 178 | 3.2 | 3.2 | 0.00 | 0.03 | 0.03 | 87 | 1021.3 |
| 20260503130933 | 3 | 168 | 0.0 | 0.0 | 0.00 | 0.03 | 0.03 | 99 | 1020.7 |
| 20260503130431 | 3 | 155 | 0.0 | 0.0 | 0.00 | 0.03 | 0.03 | 99 | 1020.9 |
| 20260503110824 | 2 | 163 | 0.0 | 0.0 | 0.00 | 0.03 | 0.03 | 99 | 1019.4 |
| 20260503110320 | 2 | 162 | 0.0 | 0.0 | 0.00 | 0.03 | 0.03 | 99 | 1019.4 |
| 20260503100247 | 3 | 166 | 0.0 | 0.0 | 0.00 | 0.03 | 0.03 | 99 | 1019.0 |
| 20260503090206 | 3 | 169 | 0.0 | 0.0 | 0.00 | 0.03 | 0.03 | 99 | 1019.0 |
| 20260503081636 | 3 | 165 | 0.0 | 0.0 | 0.00 | 0.03 | 0.03 | 99 | 1019.1 |
| 20260503081133 | 3 | 168 | 0.0 | 0.0 | 0.00 | 0.03 | 0.03 | 99 | 1019.0 |
| 20260503080629 | 3 | 169 | 0.0 | 0.0 | 0.00 | 0.03 | 0.03 | 99 | 1018.9 |
| 20260503080126 | 3 | 165 | 0.0 | 0.0 | 0.00 | 0.03 | 0.03 | 99 | 1018.8 |
| 20260503072603 | 3 | 165 | 0.0 | 0.0 | 0.00 | 0.03 | 0.03 | 99 | 1018.5 |
| 20260503072100 | 3 | 167 | 0.0 | 0.0 | 0.00 | 0.03 | 0.03 | 99 | 1018.6 |
| 20260503071557 | 3 | 166 | 0.0 | 0.0 | 0.00 | 0.03 | 0.03 | 99 | 1018.5 |
| 20260503071054 | 3 | 165 | 0.0 | 0.0 | 0.18 | 0.03 | 0.03 | 99 | 1018.5 |
| 20260503070550 | 3 | 165 | 0.0 | 0.0 | 0.18 | 0.03 | 0.03 | 99 | 1018.5 |
| 20260503055009 | 3 | 165 | 0.0 | 0.0 | 0.00 | 0.00 | 0.00 | 99 | 1018.4 |
| 20260503054505 | 3 | 165 | 0.0 | 0.0 | 0.00 | 0.00 | 0.00 | 99 | 1018.5 |
| 20260503054003 | 3 | 168 | 0.0 | 0.0 | 0.00 | 0.00 | 0.00 | 99 | 1018.5 |
| 20260503053501 | 4 | 168 | 0.0 | 0.0 | 0.00 | 0.00 | 0.00 | 99 | 1018.5 |
| 20260503052957 | 4 | 168 | 0.0 | 0.0 | 0.00 | 0.00 | 0.00 | 99 | 1018.2 |
| 20260503052454 | 4 | 163 | 0.0 | 0.0 | 0.00 | 0.00 | 0.00 | 99 | 1018.1 |
| 20260503051950 | 4 | 166 | 0.0 | 0.0 | 0.00 | 0.00 | 0.00 | 99 | 1018.1 |
| 20260503051446 | 4 | 166 | 0.0 | 0.0 | 0.00 | 0.00 | 0.00 | 99 | 1018.3 |
| 20260503050944 | 4 | 166 | 0.0 | 0.0 | 0.00 | 0.00 | 0.00 | 99 | 1018.0 |
| 20260503050439 | 4 | 166 | 0.0 | 0.0 | 0.00 | 0.00 | 0.00 | 99 | 1018.1 |
| 20260503045937 | 4 | 168 | 0.0 | 0.0 | 0.00 | 0.10 | 0.10 | 99 | 1018.3 |
| 20260503045435 | 4 | 167 | 0.0 | 0.0 | 0.00 | 0.10 | 0.10 | 99 | 1018.0 |
| 20260503044931 | 4 | 168 | 0.0 | 0.0 | 0.00 | 0.10 | 0.10 | 99 | 1018.2 |
| 20260503044428 | 4 | 168 | 0.0 | 0.0 | 0.00 | 0.10 | 0.10 | 99 | 1017.9 |
| 20260503043926 | 4 | 168 | 0.0 | 0.0 | 0.00 | 0.10 | 0.10 | 99 | 1017.9 |
| 20260503043422 | 4 | 169 | 0.0 | 0.0 | 0.00 | 0.10 | 0.10 | 99 | 1017.9 |
| 20260503042919 | 4 | 173 | 0.0 | 0.0 | 0.00 | 0.10 | 0.10 | 99 | 1017.9 |
| 20260503042415 | 4 | 173 | 0.0 | 0.0 | 0.00 | 0.10 | 0.10 | 99 | 1017.8 |
| 20260503041912 | 4 | 173 | 0.0 | 0.0 | 0.00 | 0.10 | 0.10 | 99 | 1018.1 |
| 20260503041409 | 4 | 173 | 0.0 | 0.0 | 0.00 | 0.10 | 0.10 | 99 | 1018.0 |
| 20260503040906 | 4 | 172 | 0.0 | 0.0 | 0.00 | 0.10 | 0.10 | 99 | 1017.9 |
| 20260503040404 | 4 | 168 | 0.0 | 0.0 | 0.00 | 0.10 | 0.10 | 99 | 1017.8 |
| 20260503035900 | 4 | 173 | 0.0 | 0.0 | 0.00 | 0.10 | 0.10 | 99 | 1017.8 |
| 20260503035357 | 5 | 168 | 0.0 | 0.0 | 0.00 | 0.10 | 0.10 | 99 | 1017.8 |
| 20260503034854 | 5 | 166 | 0.0 | 0.0 | 0.00 | 0.10 | 0.10 | 99 | 1017.7 |
| 20260503034352 | 5 | 166 | 0.0 | 0.0 | 0.00 | 0.10 | 0.10 | 99 | 1017.7 |
| 20260503033849 | 5 | 162 | 0.0 | 0.0 | 0.00 | 0.10 | 0.10 | 99 | 1017.7 |
| 20260503033347 | 5 | 166 | 0.0 | 0.0 | 0.00 | 0.10 | 0.10 | 99 | 1017.8 |
| 20260503032844 | 5 | 164 | 0.0 | 0.0 | 0.00 | 0.10 | 0.10 | 99 | 1017.7 |
| 20260503032343 | 5 | 167 | 0.0 | 0.0 | 0.00 | 0.10 | 0.10 | 99 | 1017.7 |
| 20260503031840 | 5 | 168 | 0.0 | 0.0 | 0.00 | 0.10 | 0.10 | 99 | 1017.9 |
| 20260503031338 | 5 | 167 | 0.0 | 0.0 | 0.00 | 0.10 | 0.10 | 99 | 1017.7 |
| 20260503030834 | 5 | 161 | 0.0 | 0.0 | 0.00 | 0.10 | 0.10 | 99 | 1017.5 |
| 20260503030330 | 5 | 162 | 0.0 | 0.0 | 0.00 | 0.10 | 0.10 | 99 | 1017.7 |
| 20260503025827 | 5 | 164 | 0.0 | 0.0 | 0.00 | 0.10 | 0.10 | 99 | 1017.8 |
| 20260503025325 | 5 | 162 | 0.0 | 0.0 | 0.00 | 0.10 | 0.10 | 99 | 1017.7 |
| 20260503024821 | 5 | 165 | 0.0 | 0.0 | 0.00 | 0.10 | 0.10 | 99 | 1017.6 |
| 20260503024318 | 5 | 169 | 0.0 | 0.0 | 0.00 | 0.10 | 0.10 | 99 | 1017.4 |
| 20260503023815 | 5 | 162 | 0.0 | 0.0 | 0.00 | 0.10 | 0.10 | 99 | 1017.8 |
| 20260503023312 | 5 | 167 | 0.0 | 0.0 | 0.00 | 0.10 | 0.10 | 99 | 1017.4 |
| 20260503022808 | 5 | 164 | 0.0 | 0.0 | 0.00 | 0.10 | 0.10 | 99 | 1017.4 |
| 20260503022305 | 5 | 168 | 0.0 | 0.0 | 0.00 | 0.10 | 0.10 | 99 | 1017.4 |
| 20260503021800 | 5 | 166 | 0.0 | 0.0 | 0.00 | 0.10 | 0.10 | 99 | 1017.4 |
| 20260503021256 | 5 | 170 | 0.0 | 0.0 | 0.00 | 0.10 | 0.10 | 99 | 1017.4 |
| 20260503020754 | 5 | 156 | 0.0 | 0.0 | 0.00 | 0.10 | 0.10 | 99 | 1017.2 |
| 20260503020251 | 5 | 168 | 0.0 | 0.0 | 0.00 | 0.10 | 0.10 | 99 | 1017.3 |
| 20260503015747 | 5 | 176 | 0.0 | 0.0 | 0.00 | 0.10 | 0.10 | 99 | 1017.4 |
| 20260503015244 | 5 | 192 | 0.0 | 0.0 | 0.00 | 0.10 | 0.10 | 99 | 1017.2 |
| 20260503014740 | 5 | 168 | 0.0 | 0.0 | 0.00 | 0.10 | 0.10 | 99 | 1017.2 |
| 20260503014238 | 5 | 171 | 0.0 | 0.0 | 0.00 | 0.10 | 0.10 | 99 | 1017.3 |